This is the latest recevied weather packets stored in our database for station/object KF7SOJ. If no packets are shown the sender has not sent any weather packets the latest 10 day(s).
| Time | Temp. | Humidity | Pressure | Rain* | Wind** | Luminosity | Snow |
|---|---|---|---|---|---|---|---|
| 1787796212 | 28.89° C | 26% | 934.1 hPa | 0 mm | - | 2 W/m² | - |
| 1787795910 | 28.89° C | 26% | 934.3 hPa | 0 mm | - | 4 W/m² | - |
| 1787795605 | 28.89° C | 26% | 934.2 hPa | 0 mm | - | 8 W/m² | - |
| 1787795307 | 29.44° C | 25% | 934.2 hPa | 0 mm | - | 12 W/m² | - |
| 1787795003 | 30° C | 24% | 934.1 hPa | 0 mm | - | 16 W/m² | - |
| 1787794699 | 30° C | 23% | 934 hPa | 0 mm | - | 18 W/m² | - |
| 1787794395 | 30.56° C | 22% | 934.1 hPa | 0 mm | - | 18 W/m² | - |
| 1787794095 | 30.56° C | 21% | 934 hPa | 0 mm | - | 20 W/m² | - |
| 1787793791 | 30.56° C | 22% | 934.1 hPa | 0 mm | - | 21 W/m² | - |
| 1787793491 | 30.56° C | 22% | 934.9 hPa | 0 mm | - | 22 W/m² | - |
| 1787793186 | 31.11° C | 21% | 934.6 hPa | 0 mm | - | 17 W/m² | - |
| 1787792881 | 30° C | 22% | 934.8 hPa | 0 mm | - | 12 W/m² | - |
| 1787792576 | 28.89° C | 31% | 934.4 hPa | 0 mm | - | 12 W/m² | - |
| 1787792273 | 29.44° C | 31% | 934.2 hPa | 0 mm | - | 11 W/m² | - |
| 1787791973 | 29.44° C | 30% | 934.4 hPa | 0 mm | - | 12 W/m² | - |
| 1787791672 | 30° C | 30% | 934.2 hPa | 0 mm | - | 14 W/m² | - |
| 1787791368 | 30° C | 30% | 934.4 hPa | 0 mm | - | 18 W/m² | - |
| 1787791062 | 30.56° C | 28% | 933.9 hPa | 0 mm | - | 27 W/m² | - |
| 1787790759 | 30.56° C | 27% | 933.9 hPa | 0 mm | - | 38 W/m² | - |
| 1787790457 | 30.56° C | 27% | 934 hPa | 0 mm | - | 47 W/m² | - |
| 1787790154 | 30.56° C | 28% | 934 hPa | 0 mm | - | 56 W/m² | - |
| 1787789849 | 31.11° C | 28% | 933.9 hPa | 0 mm | - | 75 W/m² | - |
| 1787789549 | 31.67° C | 27% | 933.9 hPa | 0 mm | - | 81 W/m² | - |
| 1787789247 | 31.67° C | 25% | 933.9 hPa | 0 mm | - | 95 W/m² | - |
| 1787788943 | 31.67° C | 25% | 934.1 hPa | 0 mm | - | 125 W/m² | - |
* Rain latest hour (hover to see other rain measurements)
** Current wind speed in m/s (hover to see current wind gust speed)